Date String (YYYY-MM-DD hh:mm:ss) UTC,Instrument flags,Ambient pressure (hPa),Sample flow (lpm),Bypass flow (lpm),Sample temperature (°C),Ambient temperature (°C),ASC tube jacket temperature (°C),LED temperature (°C),Box temperature (°C),Sample RH (%),Span deviation,Mass concentration (μg/m³),Mass concentration (μg/m³),Mass concentration (μg/m³)
DateTimeUTC,F1_M11,P_M11,Q1_M11,Q2_M11,T1_M11,T2_M11,T3_M11,T4_M11,T5_M11,U1_M11,ZSPAN_M11,X0_M11,X2_M11,X1_M11
2022-12-12 02:00:00,,0816.8,5.00,0.00,29.1,27.4,00.0,38.2,30.8,05.4,0000.0,0007.71,0003.56,0002.97
2022-12-12 02:01:00,,0816.7,5.00,0.00,29.1,27.4,00.0,38.2,30.8,05.4,0000.0,0006.78,0003.33,0002.64
2022-12-12 02:02:00,,0816.7,5.00,0.00,29.1,27.4,00.0,38.2,30.8,05.4,0000.0,0006.51,0003.24,0002.53
2022-12-12 02:03:00,,0816.5,5.00,0.00,29.1,27.4,00.0,38.1,30.7,05.4,0000.0,0006.46,0003.20,0002.52
2022-12-12 02:04:00,,0816.6,5.01,0.00,29.1,27.3,00.0,38.1,30.7,05.4,0000.0,0006.30,0003.21,0002.55
2022-12-12 02:05:00,,0816.6,4.99,0.00,29.0,27.3,00.0,38.1,30.7,05.4,0000.0,0006.15,0003.22,0002.61
2022-12-12 02:06:00,,0816.6,5.01,0.00,29.0,27.3,00.0,38.1,30.7,05.3,0000.0,0007.52,0003.24,0002.64
2022-12-12 02:07:00,,0816.6,5.00,0.00,29.0,27.3,00.0,38.1,30.6,05.3,0000.0,0007.42,0003.24,0002.66
2022-12-12 02:08:00,,0816.8,4.99,0.00,29.0,27.2,00.0,38.1,30.6,05.3,0000.0,0007.42,0003.24,0002.65
2022-12-12 02:09:00,,0816.6,5.02,0.00,29.0,27.2,00.0,38.0,30.6,05.3,0000.0,0007.29,0003.24,0002.66
2022-12-12 02:10:00,,0816.6,4.99,0.00,28.9,27.1,00.0,38.0,30.6,05.4,0000.0,0007.21,0003.23,0002.65
2022-12-12 02:11:00,,0816.4,5.01,0.00,28.9,27.1,00.0,38.0,30.5,05.4,0000.0,0007.43,0003.21,0002.64
2022-12-12 02:12:00,,0816.6,5.00,0.00,28.9,27.1,00.0,38.0,30.5,05.4,0000.0,0007.62,0003.20,0002.64
2022-12-12 02:13:00,,0816.5,4.99,0.00,28.9,27.1,00.0,38.0,30.5,05.4,0000.0,0007.67,0003.18,0002.63
2022-12-12 02:14:00,,0816.7,5.02,0.00,28.8,27.1,00.0,37.9,30.5,05.4,0000.0,0007.56,0003.16,0002.62
2022-12-12 02:15:00,,0816.5,5.00,0.00,28.8,27.1,00.0,37.9,30.5,05.4,0000.0,0007.52,0003.14,0002.60
2022-12-12 02:16:00,,0816.5,4.99,0.00,28.8,27.1,00.0,37.9,30.5,05.3,0000.0,0007.45,0003.15,0002.58
2022-12-12 02:17:00,,0816.5,5.00,0.00,28.8,27.0,00.0,37.9,30.5,05.3,0000.0,0006.03,0003.11,0002.56
2022-12-12 02:18:00,,0816.5,5.00,0.00,28.8,27.0,00.0,37.9,30.5,05.3,0000.0,0006.37,0003.07,0002.52
2022-12-12 02:19:00,,0816.5,5.02,0.00,28.8,27.0,00.0,37.8,30.5,05.3,0000.0,0006.78,0003.03,0002.53
2022-12-12 02:20:00,,0816.5,4.99,0.00,28.7,27.0,00.0,37.8,30.5,05.2,0000.0,0007.48,0003.05,0002.52
2022-12-12 02:21:00,,0816.5,4.99,0.00,28.7,27.0,00.0,37.8,30.4,05.3,0000.0,0007.43,0003.06,0002.51
2022-12-12 02:22:00,,0816.5,5.00,0.00,28.7,26.9,00.0,37.8,30.3,05.3,0000.0,0007.38,0003.10,0002.49
2022-12-12 02:23:00,,0816.4,5.01,0.00,28.7,26.9,00.0,37.8,30.3,05.3,0000.0,0007.15,0003.09,0002.48
2022-12-12 02:24:00,,0816.4,5.01,0.00,28.7,26.9,00.0,37.7,30.4,05.3,0000.0,0007.32,0003.08,0002.44
2022-12-12 02:25:00,,0816.5,4.98,0.00,28.6,26.9,00.0,37.7,30.3,05.3,0000.0,0007.68,0003.07,0002.37
2022-12-12 02:26:00,,0816.5,5.01,0.00,28.6,26.9,00.0,37.7,30.2,05.3,0000.0,0007.75,0003.08,0002.33
2022-12-12 02:27:00,,0816.5,5.01,0.00,28.6,26.9,00.0,37.7,30.3,05.4,0000.0,0007.67,0002.99,0002.30
2022-12-12 02:28:00,,0816.6,5.01,0.00,28.6,26.8,00.0,37.7,30.3,05.3,0000.0,0007.71,0002.97,0002.27
2022-12-12 02:29:00,,0816.5,4.99,0.00,28.6,26.8,00.0,37.6,30.2,05.4,0000.0,0007.59,0002.99,0002.27
2022-12-12 02:30:00,,0816.5,4.99,0.00,28.5,26.8,00.0,37.6,30.2,05.3,0000.0,0007.32,0003.04,0002.26
2022-12-12 02:31:00,,0816.5,5.00,0.00,28.5,26.8,00.0,37.6,30.2,05.4,0000.0,0006.30,0002.95,0002.24
2022-12-12 02:32:00,,0816.4,5.01,0.00,28.5,26.8,00.0,37.6,30.2,05.5,0000.0,0005.80,0002.93,0002.25
2022-12-12 02:33:00,,0816.5,5.01,0.00,28.5,26.8,00.0,37.6,30.2,05.4,0000.0,0005.60,0002.88,0002.25
2022-12-12 02:34:00,,0816.5,5.00,0.00,28.5,26.8,00.0,37.6,30.2,05.4,0000.0,0005.89,0002.87,0002.23
2022-12-12 02:35:00,,0816.4,4.99,0.00,28.5,26.8,00.0,37.5,30.2,05.4,0000.0,0006.21,0002.89,0002.25
2022-12-12 02:36:00,,0816.4,5.00,0.00,28.5,26.8,00.0,37.5,30.2,05.4,0000.0,0005.71,0002.87,0002.27
2022-12-12 02:37:00,,0816.5,5.01,0.00,28.5,26.8,00.0,37.5,30.0,05.4,0000.0,0005.59,0002.83,0002.27
2022-12-12 02:38:00,,0816.5,4.99,0.00,28.4,26.7,00.0,37.5,30.0,05.4,0000.0,0005.69,0002.84,0002.27
2022-12-12 02:39:00,,0816.5,4.99,0.00,28.4,26.7,00.0,37.5,30.0,05.3,0000.0,0005.59,0002.86,0002.29
2022-12-12 02:40:00,,0816.4,5.00,0.00,28.4,26.7,00.0,37.5,30.0,05.3,0000.0,0005.90,0002.85,0002.29
2022-12-12 02:41:00,,0816.4,5.00,0.00,28.4,26.6,00.0,37.4,30.1,05.3,0000.0,0006.27,0002.88,0002.30
2022-12-12 02:42:00,,0816.4,5.01,0.00,28.4,26.6,00.0,37.4,30.1,05.4,0000.0,0006.41,0002.95,0002.33
2022-12-12 02:43:00,,0816.5,5.00,0.00,28.4,26.6,00.0,37.4,30.0,05.3,0000.0,0006.32,0002.94,0002.33
2022-12-12 02:44:00,,0816.5,4.99,0.00,28.3,26.6,00.0,37.4,30.0,05.4,0000.0,0007.34,0003.00,0002.37
2022-12-12 02:45:00,,0816.7,4.99,0.00,28.3,26.6,00.0,37.4,29.9,05.5,0000.0,0007.45,0003.04,0002.44
2022-12-12 02:46:00,,0816.6,5.00,0.00,28.3,26.6,00.0,37.4,30.0,05.6,0000.0,0007.17,0003.11,0002.53
2022-12-12 02:47:00,,0816.7,5.00,0.00,28.3,26.5,00.0,37.4,29.9,05.5,0000.0,0007.25,0003.16,0002.61
2022-12-12 02:48:00,,0816.6,5.00,0.00,28.2,26.5,00.0,37.3,29.9,05.3,0000.0,0007.20,0003.16,0002.62
2022-12-12 02:49:00,,0816.8,5.00,0.00,28.2,26.4,00.0,37.3,30.0,05.4,0000.0,0007.09,0003.16,0002.62
2022-12-12 02:50:00,,0816.7,5.01,0.00,28.2,26.4,00.0,37.3,30.0,05.4,0000.0,0007.16,0003.17,0002.65
2022-12-12 02:51:00,,0816.5,5.00,0.00,28.2,26.4,00.0,37.3,29.9,05.6,0000.0,0007.85,0003.21,0002.75
2022-12-12 02:52:00,,0816.5,5.00,0.00,28.1,26.4,00.0,37.2,29.9,05.8,0000.0,0008.51,0003.31,0002.90
2022-12-12 02:53:00,,0816.4,5.00,0.00,28.1,26.4,00.0,37.2,29.9,05.7,0000.0,0008.72,0003.38,0003.01
2022-12-12 02:54:00,,0816.4,5.00,0.00,28.1,26.3,00.0,37.2,29.8,05.6,0000.0,0008.90,0003.44,0003.08
2022-12-12 02:55:00,,0816.5,5.01,0.00,28.1,26.3,00.0,37.2,29.8,05.5,0000.0,0008.20,0003.43,0003.07
2022-12-12 02:56:00,,0816.5,5.00,0.00,28.1,26.3,00.0,37.2,29.7,05.5,0000.0,0008.06,0003.42,0003.03
2022-12-12 02:57:00,,0816.4,4.99,0.00,28.0,26.3,00.0,37.1,29.7,05.9,0000.0,0008.11,0003.46,0003.04
2022-12-12 02:58:00,,0816.4,4.99,0.00,28.0,26.3,00.0,37.1,29.7,06.0,0000.0,0009.07,0003.62,0003.15
2022-12-12 02:59:00,,0816.4,5.01,0.00,28.0,26.3,00.0,37.1,29.7,06.2,0000.0,0010.82,0003.80,0003.27
